Location: *
(37.5724°S, 58.0067°E)
Time: 10:16:35
(UTC+00:00)

USA 229 DEB - Pass Details

Date: 28 November 2021
Orbit: 943 x 1269 km, 63.4° (Epoch: 14 January)

Event Time Altitude Azimuth Distance (km) Brightness Sun altitude
Exits shadow 17:50:12 34° 354° (N) 1,929 4.6 -24.0°
Maximum altitude 17:53:47 65° 62° (ENE) 1,342 3.9 -24.4°
Drops below altitude 10° 18:01:13 10° 142° (SE) 3,107 6.4 -25.1°
Sets 18:03:54 0° 144° (SE) 4,030 7.0 -25.4°
